Simultaneous Nadir Overpasses (SNOs) Predictions

Prediction of SNOs between FY3D and TERRA Satellite Orbit:

Table of predicted SNOs for the next 14.0 days since TLE Epoch: 3/4/2023
Index Date (FY3D) Time (FY3D) Lat,Lon (FY3D) SZA (FY3D ) Date (TERRA) Time (TERRA) Lat,Lon (TERRA) SZA (TERRA ) Distance(km) Time Diff (sec)
1 03/05/2023 21:33:15 -72.94, 36.61 101.25 03/05/2023 21:33:34 -72.97, 36.57 101.22 3.27 19
2 03/05/2023 22:24:00 72.84,-155.89 78.65 03/05/2023 22:22:57 72.85,-155.99 78.66 3.39 63
3 03/08/2023 09:37:27 72.99, 35.48 77.83 03/08/2023 09:37:57 72.99, 35.50 77.83 0.70 30
4 03/08/2023 10:28:10 -72.90,-157.02 102.27 03/08/2023 10:27:23 -72.90,-157.02 102.27 0.13 47
5 03/10/2023 21:41:35 -73.01, 34.43 103.13 03/10/2023 21:42:22 -73.00, 34.39 103.14 1.63 47
6 03/10/2023 22:32:20 72.91,-158.06 76.76 03/10/2023 22:31:44 72.93,-158.08 76.78 2.05 36
7 03/13/2023 09:45:46 73.03, 33.37 75.91 03/13/2023 09:46:43 73.03, 33.34 75.91 1.13 57
8 03/13/2023 10:36:29 -72.95,-159.13 104.19 03/13/2023 10:36:09 -72.95,-159.17 104.19 1.31 20
9 03/15/2023 21:49:55 -73.08, 32.27 105.04 03/15/2023 21:51:07 -73.07, 32.28 105.06 1.24 72
10 03/15/2023 22:40:40 72.98,-160.21 74.85 03/15/2023 22:40:29 72.99,-160.21 74.86 1.04 11



Historial Predications of SNOs between FY3D and TERRA
